カタログに戻る

ATLAS 5 CENTAUR DEB

運用中HEO
NORAD 44016·DEBRIS·🇺🇸 United States

打ち上げ Sep 17, 2014 から Cape Canaveral Space Force Station

Loading…

次のパス (今後24時間)

TLE

最新Source: Space-Track

元期: Sep 8, 2026, 12:51 UTC

1 44016U 14055BX  26251.53597745 -.00000086  00000-0  00000-0 0  9996
2 44016  19.8252 144.6831 4693920 161.0339 224.8913  1.83868310 52933

AllMySatでATLAS 5 CENTAUR DEBをリアルタイム追跡

Download on the App Store